Погода в Богатыревке

Россия / Томская область     56°58′46″N   81°45′09″E
темп.,
°C
ветер,
м/с
пор.,
м/с
влажн.,
%
обл.,
%
осадки,
мм/ч
давл.,
гПа
погр.,
м
14 августа, вс
вс1401:00+14ююз3991100 0.1 1002204
04:00+12ююз3109492 0.0 1000270
07:00+12ююз3999100 1.4 999308
10:00+14з51091100 1.1 999797
13:00+13з51087100 1.3 1001945
16:00+13з5119425 1.6 1002933
19:00+15з510835 2.4 10031165
22:00+12з41296100 0.8 1004628
15 августа, пн
пн1501:00+11з51198100 2.3 1004650
04:00+10з51196100 0.5 1005737
07:00+9з51193100 0.6 1005885
10:00+12з6116189 0.1 10061550
13:00+11з61164100 0.1 10071385
16:00+9з61284100 0.2 10081079
19:00+8зсз61490100 0.9 10091217
22:00+8зсз51395100 2.0 10091142
16 августа, вт
вт1601:00+7зсз51395100 2.4 1010960
04:00+7зсз41295100 0.7 1010818
07:00+6зсз41295100 1.1 1011749
10:00+7з41195100 0.4 1011638
13:00+12сз5767100 0.4 10111331
16:00+13зсз3754100 0.0 10121642
19:00+12зсз3761100 0.1 1012902
22:00+10зюз2774100 0.0 1012196
17 августа, ср
ср1701:00+8юз267982 0.0 1011134
04:00+10юз3978100 0.0 1010514
07:00+8ююз2895100 0.3 1009350
10:00+11ююз248192 0.1 1008534
13:00+10ююз259199 0.6 1008491
16:00+10ююз1389100 0.4 1008362
19:00+9ю1195100 0.9 100950
22:00+8св1199100 2.4 100995
18 августа, чт
чт1801:00+8ссв1199100 4.4 100955
04:00+8св1299100 0.1 1009140
07:00+8св13100100 0.7 1010247
10:00+9всв3595100 0.4 1011450
13:00+9св2597100 0.9 1013331
16:00+12св238297 0.6 1013658
19:00+11ссз2694100 2.1 1014270
22:00+9ссз2595100 0.3 1015127